Wind_Speed
4 1 3 5 7 7 8 7 6 5 6 5 4 3 6 6 7 6 4 4 1 1 9 9 9 12 15 18 13 7 10 12 12 12 12 10 10 11 12 13 14 15 12 13 20 24 26 28 26 25 24 23 21 18 15 13 10 6 3 0 2 3 4 5 6 7 9 10 12 13 14 16 18 17 18 20 21 20 21 22 24 26 27 28 29 30
4 2 7 9 9 7 5 6 6 5 5 3 3 4 5 5 8 8 3 4 1 3 7 6 7 13 14 16 15 6 9 13 14 14 15 13 12 11 14 17 16 12 8 10 16 21 26 28 27 26 25 25 24 20 17 13 9 6 4 1 2 3 4 5 6 7 9 10 11 12 13 16 17 16 17 19 20 20 21 23 25 27 27 28 29 30
3 6 10 8 6 5 5 5 7 5 4 3 2 1 4 4 5 8 4 4 2 3 5 7 7 13 15 15 18 14 11 12 13 15 16 14 14 13 14 16 15 12 10 11 13 18 25 28 28 27 27 27 25 21 18 13 9 7 5 3 2 4 4 5 6 7 9 10 11 13 14 15 15 15 16 18 19 19 21 24 25 26 27 28 28 29
2 7 7 4 6 8 5 4 7 5 2 3 3 2 5 4 1 5 4 5 3 3 4 9 10 12 13 12 17 17 11 11 11 13 13 12 14 16 16 15 15 16 15 14 13 15 22 26 28 27 27 28 25 21 18 14 10 8 6 4 3 4 5 5 6 8 10 11 12 14 15 15 15 16 15 16 18 19 21 24 25 26 27 27 27 27
7 5 2 5 5 7 5 3 6 4 2 3 5 6 6 5 5 6 4 5 4 3 3 6 10 9 6 8 13 8 4 8 8 9 11 11 13 13 12 13 15 16 15 16 15 15 18 23 26 28 28 28 26 23 19 14 11 8 7 4 4 5 6 6 7 9 10 12 14 15 17 18 18 19 19 20 22 23 24 26 27 27 27 27 27 27
8 4 5 5 2 4 6 4 5 7 3 4 5 10 10 8 7 4 4 5 4 4 4 5 7 7 1 4 10 5 4 8 4 7 11 11 10 10 11 13 13 13 13 15 15 15 18 22 24 27 28 28 28 24 19 14 10 8 7 5 4 5 6 7 8 9 11 12 14 16 18 19 19 20 21 22 24 26 27 28 29 28 28 28 28 28
3 1 4 6 5 4 5 5 6 7 5 3 4 7 7 4 2 2 2 3 1 4 3 3 2 8 2 2 8 8 7 9 8 9 11 9 9 10 12 12 11 12 13 13 13 14 17 21 23 24 27 30 28 24 19 14 11 9 7 5 5 6 6 7 8 9 11 13 14 16 16 16 16 17 19 21 22 24 26 27 28 28 28 28 28 29
3 3 4 4 5 5 5 5 6 9 7 4 4 5 6 5 4 4 2 1 3 3 4 2 4 8 8 5 9 9 8 10 13 15 12 9 10 12 13 12 12 14 14 13 14 15 17 21 24 24 28 31 28 24 20 15 12 9 8 6 6 6 7 7 8 9 11 13 14 15 16 17 17 18 21 23 23 24 25 26 28 28 28 28 27 28
3 5 5 6 4 4 6 5 8 11 5 5 4 6 6 6 5 4 4 3 2 3 5 4 5 5 9 5 3 3 5 9 13 17 14 10 11 12 13 13 13 13 13 13 15 15 17 23 26 27 29 31 28 24 21 16 12 10 8 7 6 7 7 7 8 10 11 12 14 15 16 18 20 20 22 24 25 25 25 26 28 28 29 29 28 29
1 4 7 8 5 6 5 2 6 9 4 3 6 6 5 5 4 4 3 2 2 2 9 7 7 5 8 4 2 2 3 9 12 13 11 8 9 11 12 12 12 10 10 12 14 14 19 25 27 27 30 30 28 25 20 15 13 11 9 8 7 7 7 7 9 10 11 13 14 15 17 19 21 23 24 25 27 27 27 28 29 29 30 31 31 31
2 1 3 4 4 5 4 3 2 4 3 5 6 5 5 5 4 3 1 3 3 5 10 7 12 8 6 3 6 4 5 9 9 8 8 7 7 8 9 10 10 10 10 11 11 12 17 23 25 27 28 29 28 25 20 16 14 13 10 8 8 7 6 7 9 10 12 13 14 16 17 19 21 23 24 25 27 28 28 29 30 31 32 33 34 34
4 0 2 2 2 5 6 5 3 3 4 5 4 4 3 4 3 4 4 4 0 7 6 3 7 8 8 7 5 6 7 8 9 7 7 8 9 8 8 8 9 10 10 10 10 11 13 17 21 24 25 27 28 25 20 18 15 14 11 9 9 7 6 8 9 11 12 14 15 16 18 19 20 22 23 24 26 27 28 29 30 31 33 35 36 36
3 4 3 1 2 4 6 4 3 4 3 5 4 4 3 3 3 3 3 1 3 7 3 0 2 5 11 11 8 9 11 10 9 9 8 8 9 8 7 8 8 8 9 10 10 11 12 13 16 20 22 25 27 26 22 19 16 15 12 9 9 8 6 8 10 11 13 14 15 17 18 19 20 20 22 23 25 27 27 29 30 32 34 36 38 37
4 4 1 3 3 3 8 5 2 2 2 5 5 4 4 2 0 3 4 2 5 7 3 2 2 3 9 9 12 17 17 14 11 9 8 8 9 8 7 7 7 8 9 10 10 11 12 13 16 20 22 24 27 27 23 19 17 15 11 8 8 7 7 8 10 11 13 14 15 16 17 18 19 20 22 23 25 27 28 29 30 32 34 36 38 39
4 7 4 6 2 4 9 6 4 5 4 4 5 5 5 5 4 5 4 4 7 6 3 2 2 4 5 4 7 13 12 11 9 7 6 7 8 5 5 6 7 8 9 8 9 11 12 14 18 21 23 25 27 27 23 19 17 15 10 8 7 7 7 8 10 11 13 14 15 16 17 18 19 20 22 23 25 26 28 30 31 33 34 35 39 41
4 9 5 1 0 5 6 2 4 6 3 2 3 4 3 5 5 3 3 4 1 5 4 3 4 7 4 5 6 5 6 8 7 5 6 9 7 3 5 7 7 8 8 8 10 11 12 15 19 21 23 25 27 27 23 19 18 15 9 7 7 7 7 8 10 11 13 14 15 16 18 18 20 21 23 25 26 27 28 30 32 34 35 36 38 41
2 6 3 2 2 2 3 2 1 2 3 2 3 4 5 4 5 2 3 1 4 2 6 2 5 9 5 7 8 5 6 9 6 6 9 10 6 4 7 8 7 8 9 10 11 11 12 14 18 22 23 25 26 25 22 20 17 13 8 7 6 6 7 8 10 11 12 14 16 17 18 19 20 22 23 25 27 28 29 30 32 34 36 36 37 39
4 4 3 2 1 1 1 1 1 1 3 5 3 5 3 2 4 3 1 3 3 3 6 3 9 13 9 7 2 5 6 11 8 9 12 9 5 6 9 9 8 8 8 10 10 10 11 13 17 21 23 26 27 25 22 19 16 11 7 6 6 6 7 8 10 11 12 14 16 17 19 20 21 22 24 25 27 29 30 32 32 33 35 37 38 39
3 3 4 2 2 2 2 1 0 2 2 5 3 3 2 3 2 2 2 2 2 3 6 8 10 13 10 9 5 4 9 9 9 10 11 10 9 9 10 9 8 7 8 9 10 10 10 12 17 21 23 25 26 24 21 18 14 10 7 6 6 6 7 9 10 11 12 14 16 17 19 20 21 22 24 25 27 29 30 32 33 34 35 36 37 38
3 3 4 0 2 1 2 2 5 3 1 2 1 2 1 2 4 3 3 3 3 3 6 7 10 14 10 7 7 9 10 10 9 9 10 12 12 11 10 9 8 8 10 10 10 11 11 13 17 22 24 25 24 22 21 18 13 9 7 6 6 6 7 9 9 11 13 14 16 18 19 20 21 23 24 25 26 28 30 31 33 34 35 36 37 37
3 3 4 1 2 1 3 6 9 10 7 5 3 3 2 1 2 1 2 2 4 4 4 3 7 17 10 5 8 9 8 10 11 9 11 12 11 11 10 9 8 9 11 10 11 11 11 12 16 21 24 25 24 22 21 17 12 9 7 6 5 6 7 8 9 11 13 15 16 18 19 21 22 23 24 25 26 28 30 31 32 33 34 35 36 36
4 3 5 4 2 5 6 3 3 6 7 8 8 8 8 6 4 1 4 3 3 4 5 4 6 18 11 5 6 7 7 9 10 11 12 9 9 11 10 10 11 10 11 11 11 11 10 11 15 20 22 23 23 22 20 15 11 9 7 6 6 6 7 8 10 11 13 15 16 18 20 22 23 23 24 25 26 27 29 30 31 32 33 34 35 34
3 2 4 6 6 5 4 2 0 2 2 3 5 5 6 6 7 6 8 5 3 1 2 4 3 18 13 5 5 5 7 8 9 11 10 7 8 10 9 10 10 10 10 9 9 10 9 11 15 19 20 21 22 21 19 14 11 9 7 6 5 6 7 8 10 12 13 15 17 19 20 22 22 23 23 24 26 26 27 29 30 30 31 33 34 34
2 2 4 7 5 3 3 3 2 2 2 2 6 4 6 7 8 8 6 3 3 3 3 4 4 18 14 3 5 3 3 5 7 7 7 7 7 8 9 10 9 9 8 8 9 8 8 10 14 15 16 19 20 20 18 14 10 8 7 6 5 6 7 8 10 12 13 15 17 19 20 21 22 22 23 24 24 25 26 27 28 29 30 32 33 33
3 3 3 3 5 5 4 3 2 2 1 4 5 5 8 11 8 2 1 2 4 7 8 5 9 19 12 2 5 1 1 4 8 6 7 7 7 7 8 8 8 8 8 8 9 9 10 11 12 12 15 17 18 18 17 13 11 9 7 6 5 6 7 9 10 12 14 16 18 19 20 21 22 23 25 25 24 25 27 28 29 30 31 30 30 31
6 5 6 7 9 10 10 7 4 3 3 2 4 6 11 15 12 6 3 4 8 8 10 9 17 19 16 8 1 2 3 7 9 7 6 7 8 8 7 7 7 8 10 11 11 11 12 12 10 11 14 17 18 18 17 13 11 9 7 6 5 6 7 9 10 12 14 16 18 20 21 22 24 25 26 25 25 26 28 30 30 29 28 28 29 32
3 4 9 13 14 14 15 10 4 6 5 5 9 12 14 16 15 12 7 7 10 8 7 16 23 19 24 25 13 7 11 12 12 12 9 7 8 8 8 8 8 8 9 10 11 11 12 12 11 11 13 16 18 18 16 14 11 9 7 6 5 5 6 8 10 12 15 16 18 20 21 23 24 24 24 24 25 27 28 30 32 29 29 30 30 31
2 5 13 17 19 18 18 13 6 8 7 9 12 15 17 15 15 13 13 15 15 8 9 22 25 19 26 31 23 18 18 17 18 17 11 8 9 9 8 7 8 8 8 9 11 12 14 13 12 10 12 16 17 17 16 13 10 9 7 5 4 4 5 8 10 13 15 16 17 19 20 22 23 23 22 23 26 30 31 32 34 33 32 33 32 30
3 9 14 16 17 19 20 15 8 8 9 9 11 16 17 15 15 17 22 25 18 11 17 25 25 22 26 28 24 22 20 18 20 17 9 7 8 8 7 8 9 11 10 12 14 14 15 14 12 11 11 15 17 17 16 14 11 9 7 5 3 3 5 7 10 12 14 15 16 18 20 21 22 22 22 25 29 32 33 34 35 35 34 35 35 34
3 8 14 14 14 17 21 17 9 9 11 11 13 20 18 13 16 22 27 24 17 18 25 27 25 26 28 26 23 23 20 16 16 15 10 8 8 8 9 10 12 12 12 14 15 15 14 12 12 11 11 14 17 18 16 14 12 9 7 4 2 3 5 7 10 11 12 14 16 17 18 19 21 22 24 27 30 31 33 34 35 34 34 36 36 35
4 7 9 8 9 15 20 16 9 11 13 14 18 26 22 13 17 26 26 16 13 20 27 25 23 25 27 24 21 22 19 15 16 19 17 14 11 9 10 12 12 11 13 15 14 13 12 11 11 11 11 13 17 18 17 15 12 9 6 3 1 2 4 7 9 10 12 14 15 16 17 19 20 23 25 27 29 31 32 33 33 34 34 35 36 35
5 4 2 1 6 14 15 9 8 9 7 11 21 30 27 19 20 23 19 13 15 20 22 20 19 22 23 20 18 19 18 16 18 20 18 15 12 10 12 13 12 13 14 14 13 13 13 13 13 13 12 15 18 19 18 16 13 10 7 4 2 2 4 6 8 10 11 13 14 15 17 18 20 23 25 27 29 31 32 32 33 34 34 35 35 34
5 5 4 4 8 13 9 2 6 5 2 10 20 24 25 24 22 19 17 18 20 19 16 16 20 22 19 16 17 20 20 17 18 17 14 13 11 10 13 14 13 14 14 14 14 15 15 14 13 13 15 18 20 21 18 16 14 10 7 4 2 1 3 5 7 9 11 12 14 15 16 18 21 24 26 27 29 30 31 32 32 32 34 34 33 30
5 7 6 5 7 10 4 4 6 3 9 14 10 9 15 20 20 19 20 23 23 20 17 19 25 23 16 16 20 21 20 19 19 14 8 8 9 10 12 13 12 13 12 12 13 14 14 12 12 15 20 21 22 21 18 15 12 10 7 5 2 1 3 5 6 9 10 12 13 15 17 19 22 25 26 27 29 30 31 31 32 32 31 30 29 29
7 9 6 5 5 4 2 4 3 9 14 10 6 3 10 13 14 16 19 24 26 24 21 24 29 25 20 21 22 20 19 20 18 11 5 9 12 11 11 12 12 12 11 12 13 14 14 13 12 16 21 24 23 21 18 15 12 10 8 5 3 2 3 4 6 8 10 12 14 16 18 21 23 25 27 28 29 30 31 31 31 31 29 27 28 29
10 7 4 4 4 1 2 6 10 12 10 11 16 14 7 2 2 7 14 20 24 23 19 21 26 26 21 21 21 18 15 13 13 8 7 12 12 11 11 13 12 13 14 15 16 17 17 19 21 23 26 26 24 21 19 16 12 10 8 6 4 2 2 3 6 8 10 13 16 18 20 22 23 24 26 28 30 30 31 31 31 30 29 28 28 28
11 8 5 7 8 6 7 10 11 11 12 17 23 17 5 5 5 6 10 19 24 21 15 16 24 24 19 19 20 14 6 6 11 12 11 12 12 11 12 11 11 13 14 13 15 18 21 26 31 31 30 27 24 22 19 15 13 11 9 7 4 2 1 3 5 8 11 14 17 20 21 22 23 24 26 27 29 30 31 31 30 29 29 29 29 29
13 11 10 9 8 8 9 10 9 10 12 20 21 8 5 8 11 9 7 17 25 17 11 15 22 22 17 16 14 5 3 3 11 13 9 8 10 10 8 6 7 9 11 12 14 18 24 30 32 31 30 27 23 20 18 16 14 12 10 7 5 2 1 2 5 9 12 15 18 20 20 21 22 23 24 26 27 29 30 30 30 30 28 29 30 31
14 11 11 10 8 8 10 10 11 11 12 17 14 3 4 5 7 8 3 15 19 8 13 17 20 18 16 14 8 5 4 3 11 11 5 5 8 8 7 6 7 8 12 18 23 26 29 32 31 29 28 27 22 19 18 16 14 13 11 8 6 3 1 3 6 9 12 15 17 18 19 20 20 21 23 25 26 28 29 30 31 30 29 29 30 31
10 8 8 9 10 12 12 11 9 7 9 12 7 2 3 6 12 7 8 15 9 6 13 16 16 16 15 10 7 7 7 9 9 7 2 6 6 6 7 9 10 9 11 18 27 33 34 34 32 29 26 25 22 20 19 17 15 14 11 9 6 3 2 4 7 10 12 14 16 17 17 18 20 21 22 24 25 27 28 29 30 31 31 31 30 30
6 7 8 10 13 14 14 13 9 6 9 11 5 8 7 5 8 4 16 13 3 3 8 12 14 14 11 8 8 8 11 10 4 0 5 7 7 6 6 8 11 13 16 21 29 35 33 30 29 28 25 24 23 21 19 18 16 14 11 9 6 3 3 4 7 10 12 13 14 15 17 18 19 21 22 22 24 26 28 28 28 30 31 31 31 31
5 5 6 9 11 11 12 12 9 7 10 8 9 11 8 4 3 14 18 7 2 5 7 9 11 11 9 10 11 10 8 4 3 4 6 8 8 8 8 9 10 13 18 23 29 34 33 27 24 24 22 22 23 21 19 18 17 14 12 9 6 4 4 5 7 10 11 12 13 14 16 17 19 20 21 22 24 26 28 28 27 29 30 30 30 30
9 6 5 8 9 7 9 9 7 9 11 13 14 7 6 9 13 19 15 7 5 8 8 8 9 9 9 11 12 10 6 3 4 6 6 8 9 8 8 9 9 10 13 16 21 29 32 26 20 20 22 22 22 20 19 18 16 14 12 9 6 5 4 5 8 10 10 11 12 14 15 17 19 19 21 22 23 25 27 27 27 29 29 28 29 28
8 7 6 8 8 7 8 10 11 11 10 17 19 11 14 20 21 18 13 10 10 8 7 7 9 10 11 12 11 10 8 6 7 8 8 9 10 11 10 9 9 10 12 14 20 29 31 25 18 17 20 21 21 20 18 16 15 15 12 8 7 5 4 6 7 8 9 10 12 13 15 16 18 20 20 21 23 24 25 26 27 28 27 27 27 25
13 16 14 10 9 10 10 11 12 11 9 15 18 17 21 26 24 18 12 10 10 7 6 7 10 10 11 12 10 9 9 8 9 10 10 11 11 10 10 9 9 11 12 15 22 28 29 26 22 20 19 19 20 19 17 15 15 15 12 9 8 6 5 6 7 8 9 10 11 12 14 16 18 20 20 20 21 23 25 27 27 26 26 26 25 24
17 20 16 9 7 10 11 9 8 8 7 13 18 19 19 19 17 15 13 12 11 8 6 8 10 9 10 10 9 9 9 10 11 10 10 12 10 7 7 8 9 11 12 15 20 26 28 27 24 21 18 17 18 18 17 15 14 13 12 10 8 7 6 5 6 8 9 9 10 12 13 15 18 21 22 21 20 20 23 26 27 26 25 24 23 27
12 14 12 9 8 8 11 13 16 17 13 14 17 19 18 17 13 10 11 12 12 11 8 9 10 8 9 11 12 12 11 11 12 10 9 12 12 8 8 10 10 10 11 15 22 29 31 26 20 16 16 16 17 18 18 16 14 13 12 10 9 7 6 5 6 8 8 9 10 11 13 15 17 20 22 23 22 21 21 23 25 25 25 24 25 28
9 11 10 10 12 12 14 17 18 16 12 12 15 15 15 18 16 11 10 10 11 10 9 8 8 8 9 11 13 12 11 12 14 13 11 12 13 10 8 9 11 11 12 18 27 32 29 20 15 14 15 16 19 20 19 18 15 14 12 10 9 7 5 6 7 7 7 8 9 11 12 13 15 17 20 23 24 23 22 22 23 23 24 25 26 28
5 9 9 9 12 15 15 15 14 11 8 10 16 18 18 19 18 14 13 13 11 10 9 8 9 10 11 13 13 12 12 13 14 16 15 13 13 12 8 7 10 11 13 20 28 32 29 23 20 19 17 17 22 23 20 18 16 14 12 10 9 7 6 6 7 7 6 7 9 11 12 14 15 15 17 19 22 24 23 21 19 21 23 25 25 25
5 8 8 7 11 13 13 16 17 14 12 14 20 23 23 21 18 16 16 16 16 16 14 13 11 9 10 12 13 14 15 15 14 16 16 14 16 15 10 9 9 7 12 21 27 28 29 30 29 27 23 21 25 25 22 19 17 14 13 11 9 7 6 7 6 5 5 6 8 11 12 14 15 15 15 17 18 21 23 23 20 18 20 24 26 25
11 14 12 11 14 16 18 21 19 16 15 17 21 23 20 17 17 18 18 19 21 19 17 15 13 11 10 11 13 16 17 16 15 17 15 14 16 16 11 10 12 11 15 23 25 23 23 26 29 29 26 25 27 26 22 20 17 15 13 11 9 7 6 6 5 4 5 6 8 10 11 13 15 15 16 17 16 17 19 22 25 24 21 22 25 26
Wind_Direction
86 129 233 218 228 232 221 189 175 173 151 149 158 195 235 244 271 255 227 285 8 233 265 243 237 254 261 270 267 207 197 224 226 229 230 211 207 211 210 217 216 218 217 202 205 204 195 191 187 184 183 183 182 182 185 185 186 187 178 132 14 354 345 338 335 339 338 342 343 340 336 335 340 344 347 354 357 356 355 351 347 346 347 346 345 344
65 211 232 225 221 211 194 164 131 125 121 108 177 233 270 232 258 270 252 312 333 178 267 268 249 256 254 265 273 224 192 225 220 221 230 213 210 215 211 219 218 216 206 194 208 205 195 192 189 188 186 184 183 183 186 186 186 189 192 218 343 341 331 329 326 329 334 337 339 334 329 330 336 342 344 348 352 351 350 348 345 345 345 343 342 342
5 244 239 226 192 114 88 120 115 113 126 112 151 201 278 246 271 291 311 355 348 179 269 288 274 262 256 259 266 252 222 232 223 216 226 214 210 216 214 218 215 209 202 196 207 203 197 195 192 192 190 188 189 186 185 186 187 192 200 223 301 326 320 321 318 323 329 334 336 331 329 330 333 339 341 344 351 349 345 344 343 342 341 340 339 338
246 254 247 197 142 110 81 94 107 97 126 157 157 180 258 265 297 285 308 345 298 227 271 287 280 264 255 251 259 258 242 245 237 223 227 215 212 218 215 215 209 205 204 200 203 199 196 196 195 197 193 190 191 187 185 186 190 197 202 224 277 312 314 315 316 322 328 332 335 332 332 335 335 336 336 341 349 346 339 339 338 338 337 335 333 331
236 244 166 117 122 130 133 137 137 151 257 246 202 203 240 255 234 235 290 328 311 305 318 306 292 271 241 237 254 273 289 268 244 222 235 225 220 226 221 220 214 208 205 200 200 196 193 196 198 199 195 191 190 188 187 188 193 199 204 224 271 301 310 314 319 324 328 332 334 334 337 341 341 339 338 342 345 340 335 334 334 334 333 330 328 327
258 236 134 126 116 130 154 193 191 174 214 292 232 211 226 241 245 259 330 349 350 321 335 8 318 284 199 219 259 285 302 277 243 211 236 231 221 226 226 224 216 211 208 203 201 195 192 196 197 199 197 192 191 190 188 190 195 201 206 226 268 296 309 316 323 326 329 332 334 338 341 341 339 336 337 340 339 334 331 330 330 330 329 327 325 325
264 15 95 141 149 141 168 230 231 170 145 291 250 202 208 207 211 265 346 359 297 263 300 52 297 272 265 187 255 262 262 272 270 247 243 234 220 219 225 224 211 208 207 203 201 194 194 195 194 199 198 192 191 190 187 190 198 203 209 229 266 295 310 317 324 326 328 332 335 339 338 334 330 326 328 332 330 325 324 324 324 323 323 322 321 322
157 90 66 113 122 140 183 241 224 157 134 242 228 130 129 133 159 186 127 245 243 277 299 178 181 273 278 236 244 252 259 275 275 267 259 238 223 221 226 223 211 208 203 199 198 194 195 195 195 196 194 193 192 188 186 190 199 204 212 231 266 294 307 314 322 325 328 333 335 336 333 329 329 326 325 327 325 322 320 319 319 318 317 318 318 318
137 158 179 146 123 178 205 225 192 159 156 238 193 119 110 123 149 149 133 226 278 9 295 220 156 275 273 243 266 287 256 261 263 263 261 244 225 225 227 222 215 211 203 199 199 195 195 195 196 193 190 192 191 187 187 192 199 204 213 235 266 289 301 312 320 324 329 333 333 332 330 328 330 329 325 325 323 322 321 317 315 315 315 316 316 316
112 194 192 150 156 213 210 222 182 165 187 197 137 101 72 77 81 85 121 183 44 341 267 229 165 240 272 223 160 69 219 239 249 256 260 252 231 224 226 222 215 210 203 203 200 196 196 196 195 191 188 191 190 187 189 191 196 204 214 238 266 286 300 312 319 324 329 332 331 332 332 331 330 327 325 326 324 323 321 316 314 315 315 316 316 317
330 287 186 154 184 193 142 94 114 133 145 134 107 71 39 42 51 49 66 82 48 274 268 235 180 197 278 239 175 184 206 207 219 245 264 267 253 231 224 219 210 206 202 200 199 195 194 194 193 190 189 189 187 186 188 191 197 204 215 241 269 286 301 312 320 325 329 331 331 333 334 331 328 325 325 324 321 320 318 314 313 314 314 315 316 317
340 324 224 232 165 129 99 80 54 61 102 112 87 61 23 345 18 19 356 49 47 255 273 274 186 190 247 248 203 226 242 211 198 220 242 251 258 242 223 217 208 204 200 192 191 189 184 188 193 191 188 186 184 184 188 193 199 205 215 242 270 286 303 313 322 326 327 331 333 334 334 329 325 322 322 319 315 314 313 311 311 312 314 316 316 315
298 225 233 266 170 139 113 87 22 2 54 100 94 81 57 326 350 343 313 95 228 251 262 267 177 214 246 246 230 238 251 236 214 218 229 244 258 247 221 217 211 199 195 191 188 186 183 187 191 188 185 183 183 187 191 195 199 204 215 242 269 286 305 316 322 326 327 330 333 333 330 324 320 320 319 316 311 310 309 309 310 312 314 314 313 311
292 287 175 169 251 177 153 162 214 248 150 148 147 132 141 143 62 273 273 278 269 271 264 184 163 255 271 258 227 224 232 228 221 226 230 241 256 250 226 213 208 201 196 192 189 188 190 191 189 184 182 182 184 189 192 196 199 204 216 241 266 284 306 316 320 324 326 328 330 329 324 319 319 320 319 314 310 309 308 308 309 310 311 310 308 308
244 283 213 174 235 182 178 194 167 139 146 172 154 136 159 159 168 222 232 244 273 292 275 226 185 234 266 284 223 221 235 237 235 249 255 259 260 252 234 213 206 206 198 191 192 192 194 190 185 183 182 184 187 190 192 195 199 204 218 241 263 284 304 315 318 322 324 325 326 324 319 319 321 321 317 312 309 307 307 309 309 309 308 306 305 305
216 266 252 177 312 162 179 218 104 113 134 196 126 117 185 186 169 208 213 194 245 322 284 223 221 232 238 287 258 236 257 248 244 270 273 265 258 227 230 224 210 207 195 190 194 194 194 188 185 184 183 185 189 190 193 196 199 204 219 241 259 281 299 311 316 319 320 321 322 320 318 323 325 322 317 312 309 308 309 310 309 307 306 304 304 305
198 272 302 35 351 140 166 217 109 141 179 163 144 176 216 185 133 143 265 32 67 304 273 233 254 273 302 289 255 206 229 241 244 259 251 254 250 210 229 227 211 207 195 193 197 193 189 185 187 187 184 186 188 189 193 196 198 205 218 238 255 278 296 308 313 314 317 319 317 317 321 327 326 322 316 312 311 312 312 310 308 306 305 305 304 305
186 262 305 93 215 269 169 177 37 18 142 133 183 212 197 131 95 106 237 342 34 251 272 282 268 279 289 284 291 119 202 241 241 240 246 254 244 222 236 233 212 205 195 195 198 192 188 187 189 187 184 186 187 190 195 194 195 205 219 237 255 276 292 305 309 311 316 317 314 318 325 327 325 321 316 314 313 314 312 310 309 307 305 305 305 305
156 238 292 93 202 278 30 108 216 324 107 132 201 224 126 143 168 116 154 233 245 233 270 283 283 278 256 250 269 186 200 228 235 236 247 250 237 229 238 233 209 196 193 196 196 190 190 191 188 185 183 184 186 190 192 189 191 202 215 233 254 274 292 302 306 313 318 315 315 322 326 326 323 320 317 316 316 314 312 310 310 308 306 305 306 305
119 198 264 294 235 281 43 176 192 201 82 82 282 310 13 167 177 164 154 179 184 201 264 291 299 281 249 210 237 227 198 203 217 228 239 239 232 226 230 226 202 195 200 197 196 194 191 192 188 182 179 180 185 188 186 186 191 198 211 227 249 273 287 299 309 315 314 314 321 325 326 325 323 321 319 318 316 313 311 310 309 308 307 306 305 305
103 192 230 263 323 236 192 210 197 187 176 170 201 226 236 173 112 206 218 143 142 180 237 272 281 276 266 165 209 222 187 193 202 212 233 235 229 225 225 219 202 201 206 198 196 195 188 187 184 179 178 180 183 184 182 186 191 194 210 226 247 272 288 304 313 311 310 318 325 325 325 326 324 323 321 318 316 314 312 311 309 307 307 306 305 306
152 186 208 193 229 220 212 233 209 195 178 176 194 197 194 173 122 203 246 212 160 185 206 180 252 273 273 141 188 208 176 193 200 212 232 229 220 226 223 216 207 203 206 200 194 191 183 181 179 176 177 178 177 178 179 184 190 194 208 225 249 275 296 307 308 309 316 324 328 328 329 328 325 324 320 317 317 315 313 312 310 309 308 307 307 307
120 122 222 227 230 225 243 313 218 201 155 186 217 195 179 171 154 191 227 220 186 203 194 112 261 271 268 124 143 196 190 210 212 214 231 223 216 227 224 218 215 207 205 197 188 185 181 179 175 171 172 174 174 175 178 183 188 194 207 224 252 282 299 303 306 314 323 327 330 332 331 328 326 324 321 319 318 315 314 313 312 311 309 308 309 308
87 126 225 254 281 329 340 350 39 52 68 226 239 183 171 199 196 203 216 176 158 209 178 102 245 260 268 81 113 190 183 235 238 216 220 227 224 230 226 219 214 206 198 188 182 180 174 173 172 169 171 173 172 174 176 180 186 191 205 227 256 282 293 303 313 322 328 330 332 333 332 330 327 323 323 322 318 314 314 313 313 314 312 309 309 309
182 177 181 246 290 305 307 328 348 317 202 220 237 190 197 219 208 184 65 125 230 217 162 144 242 251 263 60 92 48 340 254 255 227 212 230 231 226 227 221 207 196 188 182 179 174 174 178 177 174 172 171 170 172 174 178 184 190 204 228 257 277 293 312 321 326 332 333 333 333 332 331 330 329 331 327 319 316 317 316 315 314 315 313 309 309
181 182 176 205 233 241 246 248 235 216 187 218 244 208 212 216 201 200 212 190 233 217 154 195 243 254 267 264 141 44 270 252 256 243 226 234 235 231 227 214 202 195 190 187 181 178 182 183 180 173 168 168 169 170 172 176 181 190 205 224 252 281 302 319 326 331 335 335 334 333 332 332 333 333 331 325 319 318 317 319 319 315 314 314 312 311
158 193 203 215 224 230 241 244 178 127 147 200 223 217 217 214 204 215 230 210 222 215 181 228 244 258 270 266 261 265 263 261 263 259 252 239 233 232 227 214 203 198 194 188 182 181 184 183 180 172 164 165 166 167 171 176 181 190 205 221 250 288 310 323 331 335 337 336 334 332 329 332 333 330 324 319 318 318 318 320 322 319 317 316 314 311
122 225 222 226 232 236 248 247 172 142 191 208 213 223 224 215 203 209 227 227 221 213 230 243 246 252 262 264 267 268 267 269 270 269 261 238 229 225 218 207 197 196 193 187 187 188 187 184 178 167 160 159 160 162 168 174 182 191 202 222 256 296 320 331 335 337 337 335 331 329 329 330 331 326 320 316 318 323 325 325 325 323 321 318 315 310
165 235 233 231 239 244 252 248 183 169 230 225 215 231 228 210 201 212 229 232 220 216 240 247 248 252 257 261 265 265 264 265 271 276 265 229 229 223 205 196 198 198 191 190 195 194 190 185 173 163 159 156 156 160 165 171 180 189 201 224 260 310 332 334 336 337 336 332 327 328 329 328 327 323 319 321 325 328 330 328 326 324 321 319 316 313
176 240 240 238 249 250 251 248 200 188 241 250 243 246 236 202 200 221 234 233 223 229 242 250 256 258 259 260 262 265 267 269 277 284 276 248 235 218 205 207 208 201 193 197 201 196 188 180 168 160 156 156 159 162 165 171 179 187 201 219 258 328 331 329 335 337 333 327 325 327 327 325 324 323 323 326 330 331 330 328 326 323 320 319 317 314
211 236 244 242 254 254 253 250 212 202 234 248 255 256 249 220 215 232 239 234 226 238 246 253 261 262 260 261 264 269 273 276 276 275 272 265 249 221 214 218 211 201 201 203 200 189 180 170 164 162 159 161 164 164 166 172 177 186 195 197 237 317 325 330 337 336 329 327 328 328 326 324 324 325 328 332 333 332 329 327 324 323 321 320 318 316
205 228 269 205 240 254 257 245 202 201 228 248 253 255 251 237 230 237 242 228 221 236 248 255 257 256 260 266 270 270 268 266 265 265 265 264 250 220 219 224 212 203 206 203 192 182 175 171 170 167 162 162 163 164 168 171 174 182 184 176 215 293 328 338 339 334 328 329 329 327 326 326 327 331 334 336 335 332 329 326 325 324 322 320 319 318
183 208 226 196 231 256 262 180 151 149 198 249 248 247 245 244 242 243 248 238 226 228 238 246 247 250 261 272 272 270 269 262 259 259 257 258 249 225 221 223 213 207 205 195 186 180 177 175 171 165 161 161 163 165 170 171 171 174 172 170 197 283 346 346 340 331 327 328 327 327 329 331 335 338 338 337 335 331 329 327 325 324 323 320 319 318
191 213 216 199 234 253 237 120 109 159 230 243 247 232 232 241 241 238 244 244 236 228 227 240 252 257 264 266 263 265 270 268 267 267 253 238 236 227 224 220 213 210 202 189 183 180 174 169 163 159 158 159 161 163 166 168 166 163 161 161 161 75 4 348 338 330 327 328 329 332 337 340 342 341 339 337 335 332 329 327 325 324 322 320 319 318
192 211 214 208 238 250 150 128 171 226 232 249 305 265 220 229 231 230 240 245 243 238 232 240 253 256 255 257 260 263 268 272 279 284 251 224 227 222 219 218 211 201 189 179 176 172 168 165 158 152 151 153 156 159 161 163 160 156 153 144 122 72 16 345 335 332 330 331 335 340 344 346 346 343 340 338 335 331 329 327 325 324 322 319 317 317
201 204 201 211 221 205 164 198 228 251 272 303 297 271 235 191 208 233 251 254 249 243 233 238 251 254 251 254 259 261 267 282 292 281 234 228 226 212 211 215 204 192 187 182 178 174 170 165 157 151 150 152 155 157 159 161 156 149 143 133 116 77 30 345 333 336 333 336 344 349 350 349 346 343 341 338 335 331 327 326 324 323 321 318 315 314
212 206 207 222 215 217 231 228 243 279 297 285 273 262 210 147 174 202 250 264 261 250 224 227 249 253 249 250 255 260 284 321 299 275 248 235 222 210 216 214 195 188 185 175 167 161 159 157 152 149 150 151 153 156 157 155 148 141 138 132 123 101 45 342 335 340 340 345 352 353 352 351 347 343 340 337 332 328 325 323 322 321 320 318 316 315
214 212 214 225 218 218 239 244 249 260 257 254 258 255 139 177 195 180 211 262 269 257 193 206 241 248 246 247 247 246 58 336 278 272 261 233 207 200 209 196 172 172 159 144 139 138 143 147 147 147 149 148 150 155 153 147 143 140 139 136 131 124 83 346 343 347 350 353 355 354 353 351 347 343 338 334 329 325 322 321 320 320 320 318 315 314
218 221 222 230 231 225 232 239 239 237 243 254 262 267 114 163 147 121 195 261 267 240 169 199 230 237 239 240 214 144 120 229 259 263 246 193 186 185 176 145 134 137 137 142 143 140 142 144 142 144 146 145 147 153 149 144 144 143 142 140 138 134 78 5 354 354 358 359 356 354 353 350 347 344 337 331 327 323 321 321 320 320 320 318 316 315
210 219 223 227 232 230 229 237 242 240 252 263 264 141 154 140 112 108 263 265 257 175 168 195 217 225 230 222 168 151 186 217 247 262 191 145 153 159 152 143 140 132 127 136 140 140 141 142 140 142 145 146 148 150 147 146 146 144 141 140 141 135 64 14 5 4 4 1 356 353 353 350 348 345 337 330 327 324 322 322 321 322 322 321 320 318
194 207 210 217 228 228 227 237 245 243 251 253 207 149 157 115 97 213 253 259 257 187 179 184 205 221 216 182 164 193 213 216 229 125 118 127 124 119 124 129 129 127 129 135 139 140 139 140 142 143 145 149 150 147 149 152 147 142 141 143 145 123 62 19 10 13 9 2 357 352 351 352 349 344 339 334 329 325 323 325 325 325 325 324 323 322
181 191 197 211 223 225 227 237 247 252 243 213 153 151 164 143 194 236 239 233 206 226 203 185 204 214 193 180 195 212 215 200 147 124 132 136 130 124 124 120 116 121 129 135 140 141 137 135 137 138 141 149 151 149 154 154 145 140 145 148 142 108 68 32 19 19 11 2 356 351 350 351 349 345 341 338 333 327 326 328 329 329 328 327 325 323
179 179 198 203 205 213 225 228 233 250 229 167 139 144 190 198 226 241 241 231 210 204 193 198 210 198 182 195 210 213 200 158 144 148 141 139 140 136 135 133 129 129 131 135 144 145 139 134 134 137 142 150 153 153 156 153 144 145 150 144 128 107 72 41 30 22 12 5 358 352 350 349 348 347 344 340 337 331 329 331 334 334 334 331 327 325
172 179 208 206 192 192 209 208 212 234 212 161 156 182 205 209 227 240 237 234 233 209 182 203 217 199 190 201 207 203 190 170 166 162 150 153 158 150 146 142 133 134 138 139 148 149 143 136 132 134 143 153 158 156 155 153 149 150 150 140 125 114 79 51 38 24 14 9 360 354 352 349 348 349 346 342 339 335 333 335 337 337 337 334 329 328
192 200 214 215 200 200 212 214 214 224 201 175 187 209 211 215 229 238 233 237 241 218 180 203 224 210 196 199 196 191 190 184 178 172 162 164 164 153 150 148 139 141 141 139 146 151 147 141 138 136 142 155 160 155 153 157 158 152 145 138 130 115 85 57 39 27 18 10 3 359 354 350 351 350 345 342 341 339 338 339 339 338 337 335 333 332
209 212 221 225 210 217 237 247 240 231 197 188 210 226 226 225 232 236 234 237 239 226 193 205 225 212 190 189 187 190 198 187 175 174 168 163 160 147 141 142 139 140 136 135 147 152 147 142 140 137 139 151 158 156 155 160 163 154 144 140 132 112 88 64 43 32 21 9 5 4 358 353 352 349 344 343 344 345 346 345 341 337 335 335 334 332
223 219 224 224 205 209 233 237 233 232 217 200 215 232 241 244 240 228 226 231 235 233 214 209 219 202 181 188 192 192 195 181 169 170 165 161 163 159 149 150 152 153 149 148 152 152 147 143 142 141 140 149 161 164 162 162 161 153 144 138 128 112 93 70 48 34 22 10 5 5 1 355 349 344 344 346 346 347 350 351 346 339 335 336 333 329
211 204 209 218 214 218 232 233 233 237 228 214 221 231 240 244 238 225 223 231 234 233 218 203 204 192 183 194 197 189 183 177 172 169 165 168 172 168 158 158 156 152 151 151 152 153 150 146 144 145 143 151 166 171 167 162 159 151 144 137 126 116 98 73 54 35 21 11 5 3 360 352 344 339 342 348 352 351 349 349 347 342 337 337 335 330
166 185 185 198 217 232 244 247 249 257 255 237 235 234 234 239 236 226 225 232 235 234 225 207 203 200 194 194 191 179 176 181 180 173 168 170 173 170 164 160 155 148 149 154 158 159 158 154 151 148 146 155 169 172 167 162 157 150 145 140 131 121 101 78 60 38 24 13 6 4 357 348 343 339 341 350 358 359 356 353 348 340 338 342 341 337
154 198 183 186 220 232 234 233 236 240 241 240 239 236 232 234 235 229 225 228 228 225 220 214 212 210 203 196 186 178 181 186 182 173 170 173 176 174 164 149 147 142 145 154 160 162 161 160 157 153 153 162 170 170 165 160 155 151 148 142 134 125 105 84 67 41 26 18 8 3 356 346 341 342 346 353 357 357 359 3 4 354 344 342 343 343
200 210 199 205 227 230 226 225 226 231 236 240 243 242 236 227 225 226 222 224 227 222 214 211 210 207 207 204 193 186 185 182 174 171 174 178 177 172 159 152 157 155 152 155 158 159 160 160 158 156 159 166 170 168 163 158 155 153 151 146 138 129 108 87 75 44 24 19 10 2 351 340 338 342 352 358 357 352 351 356 3 8 4 353 347 346
Height
812 810 811 808 803 802 804 809 810 812 817 819 821 824 824 826 821 814 813 816 819 816 807 806 808 802 794 786 782 789 799 799 798 797 795 797 799 800 802 801 800 799 798 801 804 804 806 807 809 810 811 812 813 814 814 815 815 815 814 814 814 813 813 813 812 812 811 810 809 808 808 807 805 803 801 798 796 796 796 796 796 794 793 791 790 789
814 812 807 802 801 804 809 815 816 817 819 820 821 823 824 828 822 811 814 819 820 819 808 804 807 801 793 786 779 784 790 788 789 790 787 790 793 794 795 795 794 795 798 801 802 802 804 805 806 807 808 809 810 810 811 812 812 812 812 812 812 811 811 811 810 810 809 808 807 807 806 805 803 801 799 797 794 794 795 795 794 792 791 789 788 787
815 809 801 803 811 814 817 820 817 816 820 820 824 826 823 824 820 812 817 822 822 820 809 805 808 799 790 787 778 775 778 775 776 779 777 780 786 788 788 787 789 793 796 797 798 799 800 801 803 804 805 806 806 807 808 808 809 809 809 809 809 809 809 809 809 808 807 806 806 805 804 803 801 799 797 795 793 792 792 792 792 790 789 788 787 786
812 804 804 813 815 809 813 821 817 816 820 820 823 825 819 819 820 812 815 822 821 819 814 811 807 792 784 784 774 768 769 769 769 771 772 774 776 776 778 780 783 786 789 791 793 795 796 798 799 800 801 803 804 804 804 805 806 807 807 807 807 808 808 807 807 806 805 804 804 803 802 801 799 797 795 793 790 790 790 790 789 788 787 786 785 784
803 805 816 819 812 806 810 818 817 815 817 819 821 821 815 814 817 815 819 822 818 817 821 814 790 771 776 779 769 766 770 767 766 768 769 770 770 770 773 775 777 779 782 785 788 790 792 794 795 796 798 799 800 801 801 802 804 804 805 805 805 806 806 806 805 804 803 802 801 800 799 797 796 794 793 790 787 787 787 787 786 786 785 784 783 782
801 811 819 811 810 811 809 812 814 813 816 816 814 814 812 810 814 819 823 822 815 811 819 817 788 764 771 777 767 766 766 761 762 765 763 765 768 770 770 770 772 775 778 780 782 785 788 790 792 793 795 796 796 797 798 800 801 802 802 803 803 804 804 803 803 802 801 800 799 797 795 794 794 793 790 788 786 785 785 784 784 783 783 782 781 780
805 816 818 808 809 812 810 812 814 814 817 816 812 814 816 816 818 821 821 821 816 813 818 822 808 782 769 765 759 758 759 755 756 756 755 760 765 766 764 764 767 771 773 776 779 782 784 786 788 789 790 791 792 794 795 797 798 799 800 800 801 801 801 801 800 800 799 798 797 795 794 794 793 791 789 787 786 785 784 783 781 781 780 780 778 777
805 813 815 810 810 812 810 807 810 815 813 812 817 820 817 817 819 819 822 822 820 824 822 819 819 803 779 767 758 754 757 759 755 750 749 754 758 759 759 759 762 764 766 770 773 776 779 781 782 784 785 787 789 791 792 794 795 796 797 798 799 799 799 798 798 797 796 795 794 792 792 792 791 789 787 785 784 783 782 781 779 778 777 777 776 774
803 804 806 807 808 809 805 801 807 811 806 810 823 825 820 821 822 823 825 824 829 833 817 811 822 810 778 765 766 764 765 762 751 741 739 743 749 752 754 755 756 758 761 765 767 770 773 776 777 779 782 785 786 788 789 791 793 794 795 796 796 797 796 796 795 794 794 792 791 791 790 789 787 786 785 783 781 780 779 778 776 776 774 773 772 770
804 806 806 804 801 799 801 809 816 808 804 816 827 826 825 828 828 830 827 823 831 828 803 799 815 803 765 749 763 771 767 758 744 733 732 736 742 746 748 750 752 756 759 761 763 766 769 771 775 777 780 782 783 785 786 788 790 791 792 793 793 794 793 793 792 791 790 790 789 788 787 785 784 783 782 780 778 778 777 775 774 772 770 768 767 765
807 813 813 804 799 800 805 819 825 818 816 822 822 817 818 826 832 837 834 828 825 805 787 793 803 798 773 748 751 755 745 738 733 729 731 731 733 739 744 747 749 752 755 757 760 764 767 771 774 776 777 779 780 782 784 786 788 789 790 791 791 791 791 790 789 788 787 787 786 785 783 782 782 781 780 778 776 775 774 773 771 769 766 764 762 761
807 808 806 802 804 807 806 814 824 826 825 819 813 810 811 817 823 828 829 829 816 788 786 806 809 803 781 747 740 741 730 728 725 720 721 722 724 731 739 745 746 748 751 754 758 761 766 770 772 774 774 775 777 779 781 783 784 786 787 788 788 788 788 787 786 785 784 784 783 782 781 780 781 780 778 776 775 774 773 770 768 765 762 759 758 757
796 797 801 802 806 807 798 804 818 822 820 815 813 815 817 818 817 813 812 815 807 789 797 816 811 797 769 736 734 736 727 727 725 720 719 719 721 726 735 742 744 747 749 751 755 757 761 765 766 769 770 771 774 775 778 780 781 783 784 785 785 784 785 784 783 782 782 781 780 779 779 779 779 778 776 775 773 772 771 768 765 762 759 756 754 753
787 792 802 797 795 799 793 794 802 806 813 815 811 812 814 819 818 808 807 809 798 788 802 815 803 780 749 724 724 724 716 718 721 722 723 722 724 726 732 740 742 745 747 748 752 754 756 759 761 764 766 768 770 772 775 777 779 780 781 782 782 781 782 781 780 780 779 778 778 777 778 778 777 775 774 773 772 770 768 766 763 760 757 754 751 749
788 783 787 787 786 791 791 789 790 796 810 814 809 809 806 805 803 794 793 793 784 783 800 811 792 758 729 714 715 716 715 717 718 722 726 726 730 733 734 738 741 742 744 746 750 751 752 755 757 760 762 764 767 769 772 774 776 777 778 778 779 778 778 778 778 777 777 776 776 776 776 775 774 773 771 771 770 768 766 763 760 757 756 753 750 746
797 780 780 793 795 794 793 794 797 795 801 813 815 811 803 795 790 789 795 798 800 800 799 796 774 740 723 716 715 720 718 716 719 724 727 725 729 736 735 735 738 740 742 745 746 748 750 752 755 756 758 761 764 766 769 771 773 774 775 776 776 776 776 776 775 775 775 775 775 774 774 773 771 770 769 768 767 765 763 760 757 755 753 751 748 744
789 780 789 802 798 800 801 798 801 793 790 808 813 801 801 802 791 788 801 814 821 807 783 774 759 733 723 714 710 720 718 715 723 724 722 722 728 734 732 731 735 737 739 741 741 744 746 750 752 753 755 758 760 764 766 768 770 771 772 773 773 774 774 774 774 774 774 773 773 773 771 770 769 768 767 765 764 762 759 757 755 753 750 748 745 742
773 773 790 799 790 799 812 804 801 801 796 802 802 794 799 805 798 795 802 807 814 806 779 765 752 734 726 716 709 719 717 713 721 720 717 722 728 730 727 727 732 734 736 739 739 742 744 747 749 750 752 755 757 761 763 765 768 768 770 770 771 772 772 772 773 772 772 772 771 770 768 767 767 765 765 763 760 758 756 754 752 750 747 744 742 739
771 770 785 807 801 798 810 802 794 801 803 798 796 797 796 792 793 801 805 797 798 803 780 757 748 730 715 709 704 707 709 706 711 714 716 718 721 724 723 724 730 732 735 736 736 739 741 743 745 746 749 752 755 759 761 763 765 766 767 768 769 770 770 771 771 770 770 770 769 768 766 765 765 763 762 760 757 756 753 751 749 747 744 741 739 736
770 768 774 803 811 800 800 797 786 791 804 804 799 801 797 790 789 793 800 795 788 790 776 759 749 714 686 692 693 693 702 703 702 706 707 708 713 718 718 720 726 729 730 732 732 735 737 739 742 744 746 750 753 756 759 761 763 764 766 767 767 769 769 769 769 768 769 768 766 765 764 763 762 760 759 757 755 753 751 749 746 743 741 738 735 732
769 770 766 790 814 803 785 780 772 769 784 795 795 796 796 795 797 793 796 796 785 783 779 773 759 706 670 683 686 685 698 699 697 700 696 698 707 713 715 716 721 725 725 727 728 730 733 737 740 742 745 748 751 754 757 759 761 762 764 765 766 767 767 767 767 767 767 766 764 763 762 760 759 757 756 754 753 751 748 746 744 741 738 735 732 729
764 768 763 774 791 783 765 769 774 765 766 774 775 777 779 783 792 790 788 791 787 781 771 771 763 709 669 680 684 684 694 693 693 694 689 695 703 706 712 713 715 719 719 722 724 726 731 735 737 741 743 746 749 751 755 757 759 761 762 764 764 765 765 765 765 765 764 763 762 761 759 757 756 755 753 752 750 748 746 743 741 739 735 731 728 726
759 765 763 758 760 767 771 779 786 778 770 771 770 768 769 773 777 773 770 775 781 780 771 777 774 716 668 678 687 684 690 689 689 691 688 695 700 702 708 710 711 715 716 719 722 725 729 732 735 738 740 744 747 749 753 755 757 759 760 762 762 762 763 763 763 762 761 760 759 758 756 755 753 753 751 749 747 745 744 741 738 736 732 728 725 722
760 763 763 757 751 763 779 783 785 782 775 771 768 769 770 764 760 758 761 765 768 769 771 786 781 719 670 682 692 687 694 694 692 696 696 695 698 702 706 707 709 713 715 718 721 723 728 731 733 736 738 741 744 747 750 753 755 757 758 759 759 759 761 761 760 759 758 758 756 755 754 753 752 751 748 746 745 743 741 739 736 733 729 726 722 719
756 757 762 765 759 758 764 768 773 778 777 767 759 764 766 758 759 765 769 773 763 753 763 777 758 702 671 688 696 690 694 691 688 697 700 696 696 700 704 705 709 712 714 717 719 723 727 728 730 732 734 738 741 744 748 750 753 755 755 756 757 758 758 758 757 757 756 754 753 752 752 750 749 747 745 744 742 740 738 736 732 729 726 722 719 716
745 748 751 758 759 753 744 739 745 758 770 768 758 758 760 758 762 761 761 770 759 746 758 757 721 685 673 682 689 688 689 687 685 693 699 699 698 699 702 704 707 709 711 713 716 720 722 724 726 728 731 735 738 742 745 748 750 752 753 754 755 755 755 755 755 754 752 752 751 750 749 748 746 744 742 741 739 737 735 732 729 725 722 719 716 713
740 741 739 735 735 732 721 719 734 747 752 754 749 747 750 753 758 756 755 758 749 744 751 730 700 693 685 672 678 686 684 684 683 684 689 694 697 698 699 701 703 706 708 710 714 716 719 721 723 726 729 732 736 740 743 745 747 749 750 752 752 753 752 752 752 750 750 749 748 748 747 745 743 742 741 739 737 735 731 728 725 722 719 717 713 711
738 736 732 727 723 719 710 715 734 737 730 735 739 737 739 746 753 758 752 739 732 741 739 709 697 706 691 669 674 681 678 677 675 672 677 683 687 691 694 697 701 704 706 709 711 713 715 718 721 724 728 731 734 738 740 743 745 747 748 749 749 750 749 749 748 748 748 747 747 746 745 743 742 740 739 737 734 731 727 724 721 718 715 713 711 708
736 729 723 723 724 720 714 718 730 730 722 726 731 727 729 739 748 751 740 723 724 732 717 692 694 701 682 667 672 673 671 671 667 665 672 677 680 685 689 694 697 700 703 706 707 708 710 714 718 722 725 729 732 735 738 741 743 744 746 746 746 747 746 746 746 745 746 746 745 744 742 741 740 738 736 734 730 726 723 720 717 714 712 710 707 705
737 726 719 721 724 721 716 718 726 732 727 725 725 719 719 731 740 735 720 713 721 722 702 690 696 690 667 660 664 662 662 667 665 664 669 673 676 681 685 688 690 694 698 700 700 703 707 711 716 720 723 727 730 732 735 738 740 742 743 743 744 744 744 744 743 744 744 744 743 742 741 740 738 736 733 730 726 723 720 717 715 712 709 707 704 702
739 726 719 722 724 718 712 715 724 729 726 725 721 709 708 723 730 719 708 712 723 719 702 700 706 686 656 652 662 661 661 666 666 663 663 665 669 675 679 681 684 689 692 693 696 700 705 710 715 717 720 724 726 729 733 735 737 739 740 741 741 741 741 741 741 742 742 741 740 739 739 738 735 733 730 726 723 720 718 715 713 710 707 704 701 698
740 733 725 727 728 716 707 715 723 725 730 733 720 701 699 709 708 700 699 706 712 709 705 710 706 677 650 652 662 660 660 664 663 659 659 659 662 669 673 673 678 682 685 688 692 698 703 707 711 713 716 720 723 727 730 732 734 736 737 738 738 739 739 739 740 740 740 739 738 737 736 735 732 729 726 723 721 718 716 714 710 707 704 701 698 695
737 732 725 728 729 716 712 721 724 729 738 728 701 684 687 691 690 690 690 690 692 696 700 697 676 652 647 656 659 654 653 656 655 653 654 656 658 664 666 667 670 674 677 682 687 692 697 701 705 709 712 716 720 723 726 728 731 733 734 735 736 736 737 737 738 738 737 737 736 735 734 731 728 725 723 721 719 716 714 711 708 706 702 698 696 693
736 728 724 724 719 714 721 729 730 735 727 696 668 668 675 676 678 684 682 676 675 678 680 670 651 643 652 655 651 648 646 645 643 645 650 653 654 656 659 662 665 667 672 677 682 687 693 698 702 706 709 713 717 720 723 726 728 730 731 733 734 734 735 736 736 736 735 735 734 732 730 727 724 722 721 719 717 715 712 710 707 704 701 697 694 690
730 729 726 721 716 722 732 735 733 722 695 669 661 666 668 666 668 673 672 666 662 662 664 661 649 645 650 647 643 644 643 639 640 644 650 651 647 648 653 656 659 663 668 673 678 683 688 693 698 702 706 710 714 717 721 724 726 728 729 730 732 732 733 734 734 734 733 732 731 729 726 724 722 720 719 717 715 713 711 708 705 702 699 696 693 689
715 724 725 718 718 730 737 731 714 689 669 667 665 660 664 672 674 674 670 660 652 651 657 658 648 641 645 644 640 640 642 644 644 644 646 646 642 644 646 647 651 657 660 664 669 674 680 686 691 696 702 707 711 715 718 721 723 725 727 729 730 731 732 732 732 732 731 729 728 725 723 721 720 719 717 715 713 711 709 706 704 701 698 694 691 688
705 711 716 714 710 714 719 711 696 684 681 674 656 644 654 667 669 671 668 652 636 634 647 653 646 639 640 640 637 640 647 651 647 638 635 637 639 641 641 641 645 649 653 658 664 670 677 684 688 694 699 704 709 713 716 718 720 722 725 727 729 730 731 731 730 729 728 726 724 722 721 719 718 717 716 714 712 710 707 705 702 699 697 693 688 685
702 700 704 709 702 698 704 704 699 696 686 661 640 638 648 655 656 662 667 650 623 619 637 645 638 634 634 635 639 644 650 654 646 631 625 630 635 639 640 642 645 648 652 659 666 673 681 685 689 694 698 702 708 711 714 716 717 720 723 725 727 728 729 728 728 727 725 723 722 720 719 718 717 716 715 714 712 710 706 703 700 697 695 691 687 682
703 702 701 705 702 696 699 698 690 681 663 643 636 644 655 658 656 663 672 652 618 612 628 631 627 628 628 630 638 646 652 654 641 624 620 627 633 637 640 643 647 651 655 659 663 671 679 684 689 694 697 702 706 709 711 713 716 719 721 723 725 726 726 726 725 723 722 720 720 719 718 717 716 716 715 713 711 709 705 702 698 695 692 690 685 680
707 708 707 708 701 692 691 687 674 663 651 640 641 653 663 658 653 667 671 639 605 606 617 618 619 621 620 626 639 645 646 640 627 618 622 629 633 638 640 643 647 652 657 663 666 671 677 682 687 692 697 701 703 706 709 711 714 717 719 721 723 723 723 723 722 721 720 719 718 718 717 716 715 714 714 712 710 707 704 701 697 693 689 686 683 678
704 703 703 701 693 687 685 678 666 654 644 639 646 657 661 656 660 667 648 610 596 605 609 610 614 615 617 628 637 635 629 624 620 623 630 633 635 640 643 645 649 653 657 663 668 672 677 682 686 690 695 699 701 704 707 710 712 714 716 719 720 720 720 720 719 718 718 717 717 716 715 715 714 713 713 711 708 705 702 699 696 691 687 683 679 676
690 691 691 689 685 681 674 668 666 653 633 633 648 655 653 655 655 638 606 589 597 603 603 608 610 610 617 626 627 622 619 621 627 632 634 636 638 642 646 649 653 658 661 666 670 672 676 682 687 691 694 698 700 703 706 708 710 712 714 717 717 716 717 717 717 716 716 716 716 715 714 713 713 712 711 709 707 704 700 697 694 690 686 682 677 673
661 672 676 670 665 668 670 670 668 646 619 623 645 653 649 638 616 591 582 589 596 595 598 605 606 608 615 618 618 620 620 625 632 634 636 639 641 642 647 649 651 657 662 666 670 672 674 679 685 690 693 696 699 702 704 706 707 710 713 713 713 714 714 715 714 714 714 714 714 713 713 712 711 711 709 707 705 702 698 694 691 688 684 681 676 672
639 646 650 643 636 645 655 649 633 612 602 611 620 621 619 604 579 572 582 589 588 588 595 599 599 605 609 607 610 618 621 625 631 633 636 641 642 644 647 649 652 656 660 663 668 670 672 677 683 688 692 695 698 700 702 703 705 708 710 710 710 711 712 712 712 712 713 713 712 712 712 711 710 708 707 705 703 700 696 692 689 686 683 680 676 671
613 607 608 608 607 609 609 601 592 588 596 604 596 585 585 581 572 575 582 583 582 586 592 594 594 598 603 604 607 614 619 623 627 630 633 637 641 644 647 648 651 654 657 662 666 669 672 675 680 686 691 694 697 698 699 701 703 705 706 707 708 709 709 710 710 710 711 711 711 712 711 709 708 706 705 704 701 698 694 690 687 684 682 679 675 671
593 590 591 593 595 593 587 584 585 587 594 599 590 577 574 575 575 579 582 581 580 582 588 592 590 591 599 604 606 610 616 619 623 627 631 635 641 645 646 648 652 654 656 660 664 668 672 675 680 685 689 692 695 695 697 700 701 702 703 705 706 706 707 708 708 708 709 710 710 711 710 709 707 705 703 702 700 697 693 689 686 683 680 678 675 671
593 595 596 594 593 592 585 578 577 579 585 591 587 579 574 575 576 579 580 578 577 578 584 589 588 589 597 601 601 604 611 616 620 625 630 635 640 643 645 648 651 653 655 657 660 665 669 673 679 684 686 689 692 694 696 698 699 700 701 702 703 704 705 706 706 706 708 709 710 710 709 708 707 705 702 699 697 694 692 689 686 683 680 677 673 669
588 592 596 595 589 582 573 565 564 569 575 580 581 578 575 572 573 576 578 577 576 577 580 584 586 589 592 594 596 599 605 612 617 620 625 632 636 640 643 645 647 651 654 656 659 663 666 671 676 680 683 687 690 692 694 695 696 697 699 700 701 703 703 704 704 705 707 708 709 709 708 708 707 705 703 698 694 691 689 688 686 683 680 678 674 669
580 584 587 588 585 577 569 566 568 572 574 575 573 569 565 562 564 569 573 574 575 577 578 581 583 584 584 588 592 595 601 608 610 613 619 626 631 636 640 642 644 648 651 655 658 660 663 667 672 676 680 685 688 690 691 692 694 695 696 698 700 701 701 702 702 704 706 707 708 708 707 707 706 705 703 698 693 690 688 687 686 684 680 678 676 673
578 578 578 582 583 576 567 563 563 565 564 561 555 552 553 554 557 562 565 567 569 570 572 575 579 581 582 584 586 589 593 599 603 608 613 618 623 629 635 639 644 647 650 654 658 661 663 667 669 673 679 684 687 688 689 690 691 693 694 696 698 698 699 700 701 703 705 706 707 707 706 705 705 704 701 698 694 691 688 685 684 684 681 677 675 673
564 562 563 566 563 554 547 546 549 549 547 543 539 537 540 545 550 553 556 557 556 558 562 568 574 578 580 580 581 582 584 589 596 603 608 613 618 623 628 634 639 643 648 652 655 660 664 667 669 673 678 682 685 686 687 687 689 690 692 694 696 696 697 698 700 703 704 705 706 705 705 705 704 701 698 695 694 693 690 686 682 680 679 677 674 671